Regional Weather Roundup
Issued by NWS

Home | Current Version | Previous Version | Graphics & Text | Print | Product List | Glossary On
Versions: 1 2 3 4 5 6 7 8 9 10 11 12 13 14 15 16 17 18 19 20 21 22 23 24 25 26 27 28 29 30 31 32 33 34 35 36 37 38 39 40 41 42 43 44 45 46 47 48 49 50
000
ASUS43 KIND 300409
RWRIN

WEATHER ROUNDUP FOR INDIANA
NATIONAL WEATHER SERVICE INDIANAPOLIS IN
1200 AM EDT WED JUL 30 2014

NOTE: "FAIR" INDICATES FEW OR NO CLOUDS BELOW 12,000 FEET WITH NO
SIGNIFICANT WEATHER AND/OR OBSTRUCTIONS TO VISIBILITY.

* - STATION DOES NOT REPORT WEATHER SUCH AS PRECIPITATION OR FOG.

+ - STATION NOT QUALITY CONTROLLED BY THE NATIONAL WEATHER SERVICE.
    USE DATA WITH CAUTION...ESPECIALLY DEWPOINT AND RELATIVE
    HUMIDITY OBSERVATIONS.

INZ001>003-010>013-019-020-300500-
NORTHWEST INDIANA

CITY           SKY/WX    TMP DP  RH WIND       PRES   REMARKS
GARY /AIRPORT/ CLEAR     66  59  77 SW3       30.01F
KNOX *+        PTCLDY    60  56  87 CALM      30.00F
LA PORTE +     MOCLDY    61  56  84 W5        30.01S
MICHIGAN CITY+ MOCLDY    59  59 100 CALM      30.00F
MONTICELLO +   CLEAR     57  56  97 SW3       30.02S
RENSSELAER +   CLEAR     59  59 100 CALM      30.03S
VALPARAISO     MOCLDY    60  57  89 W6        30.02S

$$

LMZ046-743>745-300500-
SOUTHERN LAKE MICHIGAN

STATION/POSITION TIME  TEMP WIND        PRES
                       AIR  DIR/SP/G
                 (UTC) (F)  (DEG/KT/KT) (MB)
MICHIGAN CITY    0400   66  180/  7/  9   N/A

$$

INZ004-005-014>016-021>024-300500-
NORTH CENTRAL INDIANA

CITY           SKY/WX    TMP DP  RH WIND       PRES   REMARKS
GOSHEN         PTCLDY    60  55  83 S3        30.01S
LOGANSPORT +   CLEAR     57  55  94 CALM      30.03F
PERU/GRISSOM   CLEAR     58  58 100 SW3       30.03S
ROCHESTER +    CLEAR     63  59  88 W5        30.02F
SOUTH BEND     PTCLDY    64  56  75 SW5       30.00F
WARSAW +       CLEAR     59  55  88 CALM      30.02S

$$

INZ006>009-017-018-025>027-300500-
NORTHEAST INDIANA

CITY           SKY/WX    TMP DP  RH WIND       PRES   REMARKS
ANGOLA *+      CLEAR     55  46  71 CALM      30.01S
AUBURN +       CLEAR     59  55  88 CALM      30.02S FOG
FORT WAYNE     CLEAR     60  58  92 W8        30.02S
HUNTINGTON +   CLEAR     60  58  94 SW3       30.02S

$$

INZ028-029-035-036-043>045-051>053-300500-
WEST CENTRAL INDIANA

CITY           SKY/WX    TMP DP  RH WIND       PRES   REMARKS
GREENCASTLE +  CLEAR     59  57  94 CALM      30.06S
LAFAYETTE      RAIN      60  60 100 CALM      30.03F VSB 1
TERRE HAUTE    CLEAR     61  56  83 CALM      30.06S

$$

INZ030>032-037>040-046>048-054>057-064-065-300500-
CENTRAL INDIANA

CITY           SKY/WX    TMP DP  RH WIND       PRES   REMARKS
CP ATTERBURY + MOCLDY    59  57  94 CALM      30.07R
FRANKFORT +    CLEAR    N/A N/A N/A CALM      30.06S HAZE
GREENWOOD *+   CLOUDY    64  64 100 S3        30.07S
INDIANAPOLIS   PTCLDY    61  59  93 S3        30.05S
-EAGLE CREEK   PTCLDY    62  59  90 MISG      30.05F
KOKOMO *+      CLEAR     59  55  88 W5        30.03F
MARION +       CLEAR     56  55  97 SW3       30.04S
MT COMFORT *+  PTCLDY    59 N/A N/A SW3       30.05F
SHELBYVILLE    LGT RAIN  64  59  83 W5        30.05F
ZIONSVILLE +   PTCLDY    61  58  89 SW3       30.06S

$$

INZ033-034-041-042-049-050-058-059-300500-
EAST CENTRAL INDIANA

CITY           SKY/WX    TMP DP  RH WIND       PRES   REMARKS
MUNCIE         CLEAR     61  56  83 W7        30.03F

$$

INZ060-061-067>069-081>083-085>088-300500-
SOUTHWEST INDIANA

CITY           SKY/WX    TMP DP  RH WIND       PRES   REMARKS
EVANSVILLE     CLEAR     65  58  78 CALM      30.08S
WASHINGTON +   CLEAR     59  58  97 CALM      30.07S

$$

INZ062-063-066-070>080-084-089>092-300500-
SOUTH CENTRAL AND SOUTHEAST INDIANA

CITY           SKY/WX    TMP DP  RH WIND       PRES   REMARKS
BLOOMINGTON    PTCLDY    60  58  92 CALM      30.07S

$$




USA.gov is the U.S. government's official web portal to all federal, state and local government web resources and services.